Hourly Weather Roundup
Issued by NWS Central Illinois

Home | Current Version | Previous Version | Text Only | Print | Product List | Glossary On
Versions: 1 2 3 4 5 6 7 8 9 10 11 12 13 14 15 16 17 18 19 20 21 22 23 24 25 26 27 28 29 30 31 32 33 34 35 36 37 38 39 40 41 42 43 44 45 46 47 48 49 50
000
NZUS43 KILX 281910
HWRILX

AREA WEATHER ROUNDUP
NATIONAL WEATHER SERVICE, LINCOLN IL
100 PM CST SAT FEB 28 2015


CITY           SKY/WX    TMP DP  RH WIND       PRES   REMARKS
BLOOMINGTON    SUNNY     24  10  55 S12       30.58F WCI  13
CHAMPAIGN      SUNNY     21  10  62 SE12      30.59F WCI   9
DECATUR        PTSUNNY   23   9  55 SE12      30.59F WCI  12
FLORA          CLOUDY    28  11  48 SE5       30.58F WCI  23
GALESBURG      SUNNY     21   6  53 S7        30.57F WCI  12
JACKSONVILLE   MOSUNNY   24  11  58 SE7       30.56F WCI  16
LACON          SUNNY     19   5  54 SE7       30.61F WCI  10
LAWRENCEVILLE  CLOUDY    27  12  53 E8        30.60F WCI  19
LITCHFIELD     CLOUDY    25   8  49 SE7       30.55F WCI  17
$$


CITY           SKY/WX    TMP DP  RH WIND       PRES   REMARKS
LINCOLN        SUNNY     25  13  58 SE10      30.61F WCI  15
MACOMB         PTSUNNY   21   8  58 SE10      30.58F WCI  10
MATTOON        SUNNY     25   8  48 E8        30.57F WCI  16
MT CARMEL AP   CLOUDY    32  12  43 E9        30.58F WCI  24
OLNEY-NOBLE AP CLOUDY    28  12  50 E5        30.58F WCI  23
PARIS          SUNNY     27   9  47 SE3       30.60F
PEORIA         SUNNY     24   8  50 SE10      30.59F WCI  14
PONTIAC        SUNNY     19  10  69 E10       30.63F WCI   7
RANTOUL        SUNNY     26  11  55 S8        30.60F WCI  17
ROBINSON       SUNNY     29   8  42 E10       30.60F WCI  20
SPRINGFIELD    SUNNY     25  10  53 SE10      30.57F WCI  15
TAYLORVILLE    SUNNY     25   9  50 SE9       30.57F WCI  15
$$

...REGIONAL REPORTS...


CITY           SKY/WX    TMP DP  RH WIND       PRES   REMARKS
CHICAGO O`HARE FAIR      18   1  47 SE7       30.63F WCI   9
KANKAKEE       SUNNY     20   8  60 E8        30.64F WCI  10
MOLINE         SUNNY     16   1  51 SE7       30.59F WCI   6
MOUNT VERNON   CLOUDY    30  12  47 E9        30.57F WCI  22
PITTSFIELD     CLOUDY    24  11  56 SE7       30.55F WCI  16
QUINCY         CLOUDY    22   4  46 SE9       30.54F WCI  12
ROCKFORD       MOSUNNY   14   2  58 S10       30.64F WCI   1
$$


CITY           SKY/WX    TMP DP  RH WIND       PRES   REMARKS
BURLINGTON     MOSUNNY   19   4  51 SE8       30.55F WCI   9
CEDAR RAPIDS   SUNNY     15   0  51 SE8       30.54F WCI   4
DES MOINES     PTSUNNY   22   8  55 S13       30.49F WCI  10
KIRKSVILLE     LGT SNOW  22  14  71 SE13      30.50F WCI  10
OTTUMWA        PTSUNNY   22   8  55 S8        30.51F WCI  12
ST LOUIS       FLURRIES  27  12  53 SE10      30.55F WCI  17
$$


CITY           SKY/WX    TMP DP  RH WIND       PRES   REMARKS
TERRE HAUTE    SUNNY     25   5  42 SE9       30.60F WCI  15
EVANSVILLE     CLOUDY    31  13  47 E8        30.58F WCI  23
INDIANAPOLIS   MOSUNNY   23   5  46 SE12      30.61F WCI  12
LAFAYETTE      SUNNY     24   9  52 SE9       30.63F WCI  14
MADISON        PTSUNNY   13  -2  51 S13       30.60F WCI  -2
MILWAUKEE      MOSUNNY   16  -2  45 SW14      30.64F WCI   2
$$




USA.gov is the U.S. government's official web portal to all federal, state and local government web resources and services.